STARLINK-11138, 59949

Orbit data source: Space-Track

STARLINK-11138, 59949 is a payload satellite owned by SpaceX/Seattle (US) in LEO that was launched on Wed, 05 Jun 2024 UTC via an FALCON 9 launch vehicle from the Air Force Eastern Test Range (AFETR). Payload-class satellites include a variety of spacecraft equipped with specific instruments for various scientific and technological missions. These include communications satellites like Starlink; space stations such as the ISS; scientific satellites like the Hubble; Earth observation satellites from companies like Planet Labs, Umbra, and HawkEye 360; GPS; miniature CubeSats for education and research; and military/defense satellites.

Loading next visibility...
Identifier
59949, 2024-107E
Orbit
LEO
Last TLE update
12 hours ago
Origin
Manufacturer
SpaceX/Seattle
Mission
Operational spacecraft
Bus & Motor
STARLINK V2M, Unknown motor
Mass
730 kg wet, ~700 kg dry
Launch date (UTC)
2024-06-05 (1 year ago)
Launch vehicle
FALCON 9
Launch site
Air Force Eastern Test Range (AFETR)
Object type
Payload
Rocket body
Debris
Shape & HBR
Unknown
Radar Cross Section
Large (>1 m²)

Expand to show TLE details & history

TLE from 12 hours ago
0 STARLINK-11138
1 59949U 24107E   25181.92393996 -.00000893  00000-0 -25180-5 0  9990
2 59949  53.1599  52.3502 0000735  84.5842 275.5259 15.69714806 62665
Epoch: 2025-06-30T22:10Z
TLE epoch observation values (Epoch: 2025-06-30T22:10:28.412Z)
Latitude
-0.00009°
Longitude
160.50498°
Altitude
360.58 km
Speed
7.694 km/s
True Right ascension
03h 29m 24s
True Declination
0° 00' 00"
Sunlit
Object was in daylight at epoch
Visualization orbit readout
Latitude
-2.05923°
Longitude
156.46067°
Altitude
360.908 km
Speed
7.694 km/s
Apparent Right ascension
05h 53m 15s
Apparent Declination
-30° 03' 40"
Sunlit
Object is in daylight
Visualization observer readout
Local Sidereal Time
22:01:43
Azimuth
99.241° ESE
Elevation
-39.189°
Doppler factor
1
Orbital elements
Apogee altitude
360.469 km
Perigee altitude
359.478 km
Semi-major axis
6,738.111 km
Eccentricity
0.00007
Inclination
53.1599°
RAAN
52.3502°
Arg. of periapsis
84.5842°
True anomaly
Unknown
Mean anomaly
275.5259°
Eccentric anomaly
Unknown
Mean motion
3.92406 °/min
Orbital period
91.74 mins
BSTAR
-0.000002518
Loading maneuver chart data...
Loading SW <> Apogee altitude chart data...
Loading historical data...
Loading historical data...
Loading historical data...
Loading historical data...
Loading historical data...
Loading historical data...
Loading historical data...

STARLINK-11138 Visibility forecast

Observer location: undefined°, undefined°

Span
Click to sort rows by Start time (UTC) header in descending order
Start Az.
Max El. time (UTC)
Max El. Az.
Max El.
End time (UTC)
End Az.
5 mins2025-07-01 18:13:17.345Z235.444° WSW2025-07-01 18:16:17.345Z340.542° N43.432°2025-07-01 18:18:17.345Z44.272° NE
4 mins2025-07-02 00:39:17.345Z320.195° NNW2025-07-02 00:41:17.345Z84.975° E40.295°2025-07-02 00:43:17.345Z120.743° SE
|